Meridian, MS

7:14 PM CDT on October 14, 2019 (GMT -0500)
Key

Weather History for KMEI - August, 2019

Change the Weather History Date:

Sunday, August 11, 2019

  Actual Average Record
Temperature  
Mean Temperature 85 °F 81 °F  
Max Temperature 96 °F 92 °F 102 °F (1954)
Min Temperature 74 °F 69 °F 60 °F (1954)
Degree Days  
Heating Degree Days 0 0  
Month to date heating degree days 0 0  
Since 1 June heating degree days 0 0  
Since 1 July heating degree days 0 0  
Cooling Degree Days 20 16  
Month to date cooling degree days 209 176  
Year to date cooling degree days 1724 1323  
Since 1 June cooling degree days 1228 1040  
Growing Degree Days 34 (Base 50)    
Moisture  
Dew Point 75 °F    
Average Humidity 74    
Maximum Humidity 94    
Minimum Humidity 53    
Precipitation  
Precipitation 0.00 in 0.13 in 1.85 in (1904)
Month to date precipitation 3.18 1.58  
Year to date precipitation 41.76 36.55  
Sea Level Pressure  
Sea Level Pressure 29.97 in    
Wind  
Wind Speed 4 mph (WNW)    
Max Wind Speed 14 mph    
Max Gust Speed 17 mph    
Visibility 10 miles    
Events      
T = Trace of Precipitation, MM = Missing Value Source: NWS Daily Summary

Daily Weather History Graph

Daily Weather History Graph

Search for Another Location

Airport or City:

Astronomy

Aug. 11, 2019 Rise Set
Actual Time 6:16 AM CDT 7:43 PM CDT
Civil Twilight 5:50 AM CDT 8:09 PM CDT
Nautical Twilight 5:18 AM CDT 8:40 PM CDT
Astronomical Twilight 4:46 AM CDT 9:13 PM CDT
Moon 5:14 PM CDT (8/11) 2:43 AM CDT (8/11)
Length of Visible Light 14h 19m
Length of Day
13h 27m
Waxing Gibbous, 87% of the Moon is Illuminated
Aug 11
Waxing Gibbous
Aug 15
Full
Aug 23
Last Quarter
Aug 30
New
Sep 5
First Quarter

Hourly Weather History & Observations

Time (CDT) Temp. Heat Index Dew Point Humidity Pressure Visibility Wind Dir Wind Speed Gust Speed Precip Events Conditions
12:58 AM 75.0 °F - 73.0 °F 94% 29.96 in 8.0 mi Calm Calm - N/A   Clear
1:58 AM 75.0 °F - 73.0 °F 94% 29.96 in 10.0 mi South 4.6 mph - N/A   Partly Cloudy
2:09 AM 75.0 °F - 73.0 °F 94% 29.98 in 9.0 mi SSW 4.6 mph - N/A   Mostly Cloudy
2:58 AM 75.0 °F - 73.0 °F 94% 29.97 in 10.0 mi Calm Calm - N/A   Clear
3:58 AM 73.9 °F - 72.0 °F 93% 29.97 in 10.0 mi South 4.6 mph - N/A   Clear
4:58 AM 73.9 °F - 72.0 °F 93% 29.97 in 10.0 mi SSW 3.5 mph - N/A   Partly Cloudy
5:58 AM 73.9 °F - 72.0 °F 93% 29.99 in 10.0 mi Calm Calm - N/A   Mostly Cloudy
6:58 AM 75.0 °F - 72.0 °F 90% 30.01 in 10.0 mi Calm Calm - N/A   Mostly Cloudy
7:58 AM 77.0 °F - 73.9 °F 90% 30.02 in 10.0 mi Calm Calm - N/A   Clear
8:55 AM 82.4 °F 89.5 °F 75.2 °F 79% 30.04 in 10.0 mi WNW 3.5 mph - N/A   Partly Cloudy
8:58 AM 82.0 °F 89.4 °F 75.9 °F 82% 30.03 in 10.0 mi Calm Calm - N/A   Scattered Clouds
9:58 AM 87.1 °F 98.8 °F 77.0 °F 72% 30.02 in 10.0 mi North 4.6 mph - N/A   Clear
10:58 AM 87.1 °F 98.8 °F 77.0 °F 72% 30.02 in 10.0 mi Calm Calm - N/A   Overcast
11:58 AM 88.0 °F 98.5 °F 75.9 °F 67% 30.00 in 10.0 mi West 6.9 mph - N/A   Overcast
12:58 PM 91.9 °F 105.9 °F 77.0 °F 62% 29.98 in 10.0 mi NW 6.9 mph - N/A   Scattered Clouds
1:58 PM 93.9 °F 106.9 °F 75.9 °F 56% 29.97 in 10.0 mi North 11.5 mph 17.3 mph N/A   Partly Cloudy
2:58 PM 93.9 °F 106.9 °F 75.9 °F 56% 29.96 in 10.0 mi NNW 8.1 mph - N/A   Partly Cloudy
3:58 PM 95.0 °F 106.7 °F 75.0 °F 52% 29.94 in 10.0 mi NNW 10.4 mph - N/A   Clear
4:58 PM 95.0 °F 106.7 °F 75.0 °F 52% 29.94 in 10.0 mi NNW 8.1 mph - N/A   Clear
5:58 PM 93.9 °F 105.4 °F 75.0 °F 54% 29.94 in 10.0 mi NNW 5.8 mph - N/A   Clear
6:58 PM 89.1 °F 101.4 °F 77.0 °F 67% 29.94 in 10.0 mi NW 4.6 mph - N/A   Clear
7:58 PM 84.9 °F 96.6 °F 78.1 °F 80% 29.95 in 10.0 mi Calm Calm - N/A   Clear
8:58 PM 82.9 °F 91.8 °F 77.0 °F 82% 29.93 in 10.0 mi Calm Calm - N/A   Clear
9:58 PM 80.1 °F 85.8 °F 77.0 °F 90% 29.93 in 10.0 mi Calm Calm - N/A   Clear
10:58 PM 79.0 °F - 75.9 °F 90% 29.93 in 10.0 mi SSW 3.5 mph - N/A   Clear
11:58 PM 78.1 °F - 75.0 °F 90% 29.94 in 9.0 mi Calm Calm - N/A   Clear